Wind_Speed
3 5 7 8 9 10 11 12 13 13 14 15 16 17 19 20 21 20 19 18 18 20 19 18 20 20 17 10 20 9 15 12 12 10 7 15 16 13 11 7 7 7 6 8 14 12 10
6 7 8 10 11 11 11 12 13 14 15 16 17 17 18 19 19 20 22 22 19 19 19 18 18 18 16 14 18 22 34 32 16 8 6 8 9 15 7 10 11 5 12 18 11 13 13
8 8 8 8 9 10 12 13 14 15 16 17 18 18 18 19 21 20 21 22 22 19 18 17 16 17 20 29 15 11 19 28 19 11 9 7 13 6 5 3 12 8 8 8 14 9 8
7 7 9 11 13 14 14 14 14 15 17 18 19 19 21 22 21 22 24 24 24 20 17 15 16 16 16 18 19 16 24 21 22 16 15 13 10 9 6 4 2 6 5 11 11 17 10
9 10 11 12 13 13 13 13 13 13 15 16 18 20 21 23 24 24 26 27 26 17 16 14 16 12 16 9 13 9 12 22 21 18 12 10 6 7 6 7 4 7 13 12 10 6 8
11 11 11 11 11 13 13 14 14 13 14 16 18 19 21 23 25 27 31 26 17 12 14 12 10 8 12 10 7 18 7 7 15 12 13 9 9 7 8 13 17 12 8 9 9 7 11
10 11 12 12 11 12 13 14 15 14 15 16 18 20 21 23 25 25 23 15 9 4 5 8 8 9 20 18 21 17 6 5 8 15 12 13 8 19 29 21 10 4 14 13 4 5 3
10 11 12 12 12 13 12 12 14 14 14 16 18 20 21 23 23 20 14 6 10 11 11 17 19 27 32 29 17 15 5 8 10 12 14 8 19 27 14 15 15 16 7 5 5 8 4
11 12 13 13 14 14 13 13 13 13 13 15 17 19 20 21 17 18 15 14 10 8 5 8 14 9 12 10 8 12 9 6 7 12 20 18 20 13 19 14 16 20 22 16 7 6 6
12 13 13 13 14 14 14 12 11 12 12 13 15 17 19 19 11 20 16 13 4 6 3 7 11 6 23 11 4 12 9 9 4 13 14 15 21 13 20 22 21 21 15 15 12 8 12
13 14 14 14 15 14 12 11 10 10 10 12 14 16 17 15 12 15 18 15 6 3 4 12 6 6 10 11 13 3 6 5 10 6 6 13 8 19 19 21 17 18 10 13 14 14 10
13 13 14 15 14 12 9 9 8 9 9 10 13 14 15 13 11 14 18 15 4 3 3 7 9 11 9 5 10 16 7 2 1 10 16 12 4 4 21 18 16 9 6 9 7 7 10
12 12 14 14 13 9 6 5 7 8 8 9 11 12 13 13 13 14 17 9 3 5 6 9 9 10 13 11 9 13 12 14 4 3 11 10 15 13 7 14 11 17 12 7 8 7 15
12 11 12 12 11 7 4 3 6 6 7 8 10 11 9 12 12 13 15 3 7 2 4 8 7 10 9 15 7 10 9 6 14 3 3 4 6 13 7 8 13 18 19 8 14 14 16
10 11 11 10 9 6 5 4 5 6 7 8 9 7 9 9 10 12 4 5 3 3 5 7 9 5 8 12 9 4 6 6 6 13 4 6 4 5 4 6 7 13 20 20 9 8 3
8 9 9 8 7 6 5 5 5 6 7 8 9 6 6 9 10 9 4 3 2 3 6 3 5 5 7 11 9 10 5 3 2 4 1 4 6 5 6 7 5 13 5 12 11 11 19
7 7 8 7 7 6 5 4 5 5 6 7 8 2 4 10 9 4 3 2 3 5 6 3 3 3 4 6 5 5 8 2 9 5 3 1 1 7 5 7 4 6 14 12 4 9 11
7 6 6 6 6 5 4 5 5 4 5 6 5 2 7 7 4 2 1 2 4 4 4 2 2 2 3 4 4 5 3 4 10 6 4 2 1 4 4 1 5 4 6 6 3 5 2
7 7 6 5 5 5 5 5 5 3 4 5 6 3 5 6 2 2 4 3 2 2 3 3 2 4 3 3 3 2 4 5 5 9 2 0 1 4 1 5 6 5 2 3 3 3 5
11 7 7 5 5 5 4 4 3 2 2 4 3 2 3 5 5 3 2 2 4 4 3 3 2 1 3 4 2 5 5 3 15 9 10 5 2 4 5 7 5 6 6 4 4 3 4
12 8 8 7 5 4 4 3 3 2 2 2 2 0 1 1 1 1 0 1 3 3 2 2 1 1 2 2 4 3 3 11 8 5 2 2 3 5 12 15 13 13 15 12 14 12 7
15 10 10 9 8 6 4 4 3 3 3 3 1 2 1 2 2 1 1 3 3 3 2 3 4 4 2 6 8 13 15 7 7 4 2 2 3 4 8 14 14 17 19 20 18 17 19
14 14 10 11 9 8 7 5 4 4 5 3 3 3 1 2 1 2 3 4 3 1 5 7 5 7 12 14 13 16 17 18 16 11 10 5 2 2 6 9 10 10 25 19 18 16 19
15 16 16 13 13 10 9 8 6 6 7 8 5 3 3 3 3 4 4 6 9 9 11 17 15 9 8 10 21 17 15 21 22 21 19 11 5 3 5 6 12 11 5 9 15 19 17
15 15 16 19 14 14 13 10 10 9 8 10 10 9 6 3 8 7 13 11 12 11 10 12 19 19 15 11 3 5 4 4 6 11 11 17 10 4 5 9 16 19 12 10 7 17 22
17 16 15 14 18 17 14 15 14 12 13 13 13 13 10 4 7 14 6 8 6 6 5 6 11 8 11 2 2 2 3 4 4 3 4 8 12 6 3 5 7 4 3 6 3 17 7
17 17 17 15 14 15 17 17 16 16 15 15 14 12 12 7 19 20 9 7 6 2 3 4 4 2 3 2 3 4 4 4 4 4 3 3 3 11 10 9 11 8 14 4 8 9 8
18 16 16 16 16 15 13 13 14 14 14 17 21 19 19 18 26 30 26 19 14 10 7 6 6 3 2 3 3 3 4 3 3 7 6 4 3 4 5 8 12 7 6 11 11 12 16
19 17 16 15 14 14 14 13 13 13 12 15 19 15 17 23 20 19 18 21 31 34 25 13 10 4 5 3 3 3 3 4 8 11 11 9 10 7 8 6 7 12 13 21 30 33 33
Wind_Direction
1 2 6 7 7 8 7 6 4 2 1 359 356 352 347 344 342 340 335 328 313 307 298 292 300 310 306 248 234 177 223 255 300 319 341 227 198 193 198 201 208 231 228 214 229 228 237
41 36 26 17 14 10 8 8 7 4 0 357 353 350 346 342 339 337 334 331 323 307 295 288 296 303 298 255 256 246 246 256 274 281 285 193 211 208 217 216 209 177 220 250 256 246 254
25 19 13 6 3 4 4 3 360 356 354 354 352 349 343 339 335 331 328 328 320 312 295 287 292 296 283 260 263 239 240 251 254 245 245 243 224 214 215 192 230 225 248 269 242 228 241
14 10 6 5 4 1 356 352 348 348 349 350 347 344 343 340 332 325 322 318 318 305 295 287 290 291 270 293 281 270 249 247 238 231 241 231 218 237 215 254 254 202 209 242 238 221 224
12 9 5 3 0 353 350 346 339 343 344 343 342 343 343 340 335 327 319 311 311 294 288 281 292 286 279 308 278 287 269 244 240 240 238 212 194 209 179 210 221 215 233 226 249 205 182
353 347 344 342 339 342 346 348 346 344 345 342 342 344 344 341 337 332 326 320 313 287 280 275 266 289 264 291 275 325 267 247 222 209 218 198 198 205 206 190 216 222 223 234 229 202 192
327 329 331 330 332 333 335 337 342 342 341 342 343 346 347 345 340 337 344 358 9 359 353 260 273 238 281 295 294 303 272 281 185 188 191 187 198 211 213 215 222 64 225 232 233 259 265
331 331 331 329 328 329 328 328 330 339 338 342 346 348 349 349 347 347 344 28 6 329 304 302 277 259 272 281 294 271 274 191 184 193 190 174 224 222 210 211 227 246 242 224 276 267 281
323 326 325 327 327 325 321 323 326 332 338 340 347 349 350 354 357 18 37 358 306 304 266 316 309 304 337 304 243 274 275 255 203 188 194 200 224 193 201 200 206 225 233 230 233 315 264
322 325 325 325 321 319 318 314 321 325 335 337 348 349 351 359 4 1 22 1 330 350 348 353 343 345 359 312 256 298 258 245 236 199 185 218 246 250 208 214 209 227 224 232 230 227 253
324 323 325 324 319 313 309 312 314 322 331 334 346 347 350 359 352 360 350 2 355 326 33 318 320 293 25 25 295 323 309 235 248 246 177 211 189 210 237 229 205 241 197 201 218 230 254
324 325 330 328 325 316 305 303 308 322 329 332 346 345 345 353 351 339 342 339 348 44 12 326 342 330 342 347 11 353 5 135 104 254 268 254 344 256 225 220 205 207 191 204 211 211 233
324 331 335 336 335 328 313 308 313 323 327 331 343 344 340 349 341 334 340 336 39 71 314 341 334 329 357 2 40 19 44 51 34 172 236 273 250 265 282 206 200 191 176 194 210 199 236
326 337 341 343 347 348 337 330 323 327 326 331 342 344 345 350 342 339 341 53 62 273 315 315 323 332 18 9 35 43 25 35 26 17 329 244 233 202 214 225 201 204 196 200 212 225 242
327 338 343 347 352 356 351 336 334 335 328 332 342 346 351 352 348 345 355 51 187 254 315 318 320 5 5 359 355 35 71 35 9 17 35 2 238 331 26 349 232 186 216 215 259 260 279
318 333 342 349 355 353 345 335 337 334 329 334 342 345 350 355 349 348 65 137 223 259 316 328 17 1 358 347 9 8 41 277 7 3 51 16 298 359 318 323 240 239 213 205 229 239 246
302 322 336 344 346 345 339 332 338 333 331 337 343 342 343 338 343 34 89 224 284 292 336 328 335 326 358 349 333 0 12 33 2 1 15 57 35 312 321 26 17 356 236 236 261 226 230
292 298 322 334 334 341 331 323 323 328 332 341 348 13 344 352 40 33 87 281 318 299 339 344 308 332 340 323 326 350 344 9 1 17 2 17 49 312 297 289 285 90 9 8 269 231 356
261 276 296 319 325 326 315 313 314 309 328 342 341 315 360 15 91 8 319 312 278 303 315 333 337 4 339 317 343 313 332 317 352 352 336 238 30 322 113 132 107 74 40 51 330 318 244
247 262 271 292 311 315 317 317 318 299 304 338 358 13 24 60 90 114 32 316 311 287 269 277 278 91 348 351 338 300 305 304 334 308 291 230 196 237 272 302 317 292 278 236 166 238 306
238 247 262 265 282 300 301 300 299 286 252 302 20 138 107 326 15 123 170 269 299 305 272 298 290 175 24 322 308 281 287 317 301 308 21 115 238 233 260 272 280 281 282 264 235 234 234
234 233 250 258 259 269 281 283 274 253 241 233 278 150 126 275 273 149 277 242 234 291 246 276 243 291 308 281 266 282 286 291 281 318 51 27 280 334 272 274 274 280 276 261 247 241 243
243 227 240 242 254 260 261 265 259 242 231 221 218 220 220 243 178 160 222 217 231 33 280 252 290 328 300 288 280 270 265 260 252 261 269 264 231 247 268 305 293 275 246 252 249 246 235
245 233 231 238 237 240 255 251 245 235 238 233 232 201 158 256 211 216 235 228 261 267 266 277 284 277 272 288 302 286 263 258 255 252 234 235 210 214 274 283 252 258 314 261 255 265 259
239 244 238 235 236 235 239 246 247 236 239 236 243 238 210 247 228 255 251 260 272 279 273 265 273 273 285 305 304 328 315 336 264 240 233 218 225 232 243 234 284 292 266 240 223 271 250
238 239 245 243 235 234 238 238 237 243 241 246 244 244 249 264 224 251 271 247 262 269 289 257 282 293 287 219 267 258 266 267 299 309 49 187 212 213 177 254 267 289 161 189 197 271 312
241 236 238 240 245 236 234 238 233 235 234 243 249 244 248 264 266 259 250 252 236 209 252 288 306 298 217 209 232 223 243 267 253 247 220 162 203 226 233 244 259 253 250 259 231 260 284
238 241 241 240 241 245 245 241 238 236 235 238 247 247 244 263 265 260 253 241 239 238 252 268 320 226 128 191 221 232 223 237 268 254 280 261 224 204 230 239 270 240 232 219 251 283 294
233 240 242 240 242 244 243 245 248 242 232 230 247 249 255 258 259 270 261 249 248 250 248 240 226 189 210 208 223 257 268 280 280 274 254 269 234 260 221 233 263 266 266 275 288 284 285
Height
1517 1516 1515 1514 1513 1512 1511 1510 1509 1508 1506 1505 1503 1501 1498 1496 1493 1490 1489 1487 1485 1483 1482 1482 1480 1478 1477 1477 1468 1471 1471 1471 1473 1475 1475 1475 1479 1482 1482 1483 1485 1482 1482 1481 1482 1483 1483
1516 1516 1515 1514 1513 1512 1511 1510 1509 1507 1506 1504 1502 1500 1497 1494 1492 1489 1487 1485 1483 1482 1480 1479 1477 1476 1476 1471 1465 1467 1470 1469 1472 1474 1474 1474 1475 1478 1478 1478 1479 1476 1478 1478 1479 1480 1480
1516 1516 1515 1514 1513 1512 1510 1509 1508 1506 1505 1503 1501 1499 1496 1493 1490 1488 1485 1482 1480 1478 1476 1475 1474 1472 1468 1459 1462 1462 1464 1465 1468 1470 1472 1473 1473 1475 1475 1476 1475 1474 1476 1476 1473 1475 1475
1517 1516 1515 1514 1512 1511 1510 1508 1507 1505 1504 1502 1499 1497 1494 1491 1488 1485 1482 1479 1477 1475 1473 1472 1471 1469 1460 1459 1456 1457 1461 1460 1462 1465 1468 1470 1471 1473 1474 1472 1472 1471 1474 1473 1458 1466 1469
1517 1516 1515 1513 1512 1511 1510 1508 1507 1505 1503 1501 1499 1496 1493 1490 1486 1482 1478 1474 1472 1471 1470 1469 1469 1467 1458 1454 1452 1452 1452 1453 1457 1462 1464 1468 1469 1470 1471 1471 1472 1468 1458 1466 1462 1458 1461
1517 1516 1514 1513 1512 1510 1509 1507 1506 1504 1502 1500 1497 1495 1491 1488 1483 1479 1473 1468 1465 1466 1466 1466 1465 1467 1455 1452 1450 1449 1449 1449 1451 1456 1463 1464 1466 1463 1465 1462 1454 1455 1462 1460 1460 1455 1455
1516 1515 1513 1512 1510 1509 1507 1506 1504 1502 1501 1499 1496 1493 1490 1485 1481 1476 1471 1467 1469 1468 1465 1466 1463 1458 1453 1451 1448 1447 1448 1447 1448 1451 1454 1457 1459 1450 1443 1453 1453 1456 1454 1457 1459 1454 1455
1515 1513 1512 1510 1509 1507 1506 1505 1503 1501 1499 1497 1495 1492 1488 1484 1479 1475 1472 1473 1473 1475 1465 1460 1458 1456 1451 1451 1449 1444 1446 1447 1445 1441 1448 1454 1445 1431 1448 1453 1456 1457 1462 1464 1460 1455 1456
1513 1512 1510 1508 1507 1505 1504 1502 1501 1499 1498 1496 1494 1491 1487 1483 1479 1476 1473 1474 1472 1471 1469 1462 1458 1455 1452 1450 1446 1441 1444 1442 1440 1441 1441 1435 1421 1440 1445 1448 1453 1454 1454 1457 1458 1454 1452
1511 1510 1508 1506 1504 1503 1502 1500 1499 1497 1496 1494 1493 1490 1486 1483 1480 1476 1474 1472 1471 1470 1470 1466 1460 1457 1453 1447 1444 1440 1439 1442 1436 1436 1439 1439 1433 1437 1438 1440 1443 1447 1448 1455 1458 1463 1460
1509 1507 1505 1503 1501 1499 1498 1498 1497 1495 1495 1493 1492 1489 1486 1482 1481 1477 1476 1472 1471 1472 1467 1465 1459 1457 1454 1453 1446 1437 1437 1437 1437 1432 1435 1427 1427 1433 1437 1430 1439 1435 1446 1452 1455 1457 1461
1508 1506 1503 1500 1498 1496 1495 1495 1495 1494 1493 1492 1491 1488 1485 1483 1480 1478 1475 1472 1471 1475 1480 1468 1460 1458 1452 1449 1447 1441 1436 1436 1437 1436 1432 1430 1430 1429 1423 1432 1434 1439 1445 1451 1455 1457 1461
1506 1504 1501 1498 1496 1494 1493 1493 1493 1493 1492 1491 1490 1487 1484 1483 1480 1477 1475 1472 1476 1484 1478 1469 1464 1459 1454 1450 1449 1451 1449 1447 1446 1438 1431 1429 1431 1429 1428 1427 1432 1436 1443 1454 1464 1463 1439
1504 1502 1500 1497 1495 1493 1492 1492 1492 1491 1491 1490 1489 1487 1484 1482 1480 1477 1475 1475 1487 1487 1479 1471 1467 1460 1458 1455 1453 1456 1453 1452 1452 1449 1440 1430 1426 1426 1422 1423 1423 1427 1431 1433 1442 1435 1423
1502 1500 1498 1496 1494 1493 1492 1491 1491 1490 1489 1489 1487 1486 1484 1482 1480 1478 1476 1487 1494 1486 1481 1476 1468 1465 1462 1460 1458 1455 1460 1460 1459 1452 1451 1448 1432 1431 1428 1429 1424 1423 1427 1420 1429 1425 1434
1500 1499 1497 1495 1493 1492 1491 1490 1490 1489 1488 1488 1486 1485 1484 1482 1480 1478 1480 1487 1489 1485 1481 1478 1474 1470 1470 1466 1462 1460 1456 1460 1458 1456 1454 1456 1449 1437 1432 1428 1422 1420 1418 1431 1431 1436 1434
1497 1497 1495 1494 1492 1491 1490 1490 1489 1489 1488 1487 1486 1484 1484 1482 1480 1480 1488 1492 1486 1482 1482 1480 1476 1474 1472 1471 1468 1466 1462 1460 1458 1456 1456 1457 1458 1440 1434 1438 1440 1434 1423 1422 1427 1419 1417
1494 1494 1493 1492 1491 1490 1489 1489 1488 1488 1487 1487 1485 1486 1483 1482 1484 1490 1489 1488 1487 1483 1480 1480 1479 1476 1473 1471 1469 1466 1465 1461 1460 1459 1459 1460 1459 1452 1441 1443 1444 1449 1450 1447 1430 1417 1428
1491 1491 1491 1490 1489 1488 1488 1488 1488 1487 1487 1486 1485 1485 1484 1482 1489 1492 1490 1489 1487 1484 1482 1479 1478 1479 1477 1474 1474 1469 1466 1463 1461 1461 1460 1460 1465 1457 1440 1445 1446 1451 1455 1455 1454 1448 1433
1488 1488 1488 1488 1488 1487 1487 1486 1486 1486 1486 1487 1486 1488 1485 1484 1487 1489 1490 1491 1488 1483 1482 1481 1479 1477 1478 1477 1475 1473 1468 1464 1462 1460 1458 1459 1461 1458 1452 1447 1447 1448 1446 1448 1454 1453 1443
1484 1485 1485 1485 1486 1485 1485 1485 1485 1485 1486 1487 1487 1488 1489 1490 1489 1489 1489 1489 1488 1484 1482 1480 1478 1477 1479 1483 1478 1474 1468 1465 1462 1459 1458 1459 1461 1456 1450 1446 1446 1445 1442 1441 1442 1440 1443
1479 1481 1482 1482 1483 1484 1484 1484 1484 1484 1485 1486 1487 1487 1489 1488 1488 1488 1489 1490 1486 1483 1483 1480 1479 1477 1478 1479 1476 1473 1469 1468 1464 1460 1460 1462 1459 1459 1454 1444 1442 1441 1434 1428 1428 1430 1429
1474 1476 1478 1479 1480 1481 1482 1482 1482 1483 1484 1484 1485 1486 1487 1487 1487 1488 1485 1483 1482 1482 1480 1479 1479 1479 1476 1472 1470 1468 1467 1465 1462 1460 1460 1461 1461 1460 1450 1443 1441 1440 1414 1416 1414 1413 1415
1469 1471 1473 1474 1476 1478 1479 1480 1480 1481 1482 1483 1484 1485 1486 1485 1485 1483 1481 1481 1479 1479 1479 1476 1477 1478 1471 1469 1467 1462 1458 1455 1454 1449 1453 1453 1457 1458 1449 1448 1442 1410 1410 1410 1410 1406 1407
1464 1465 1467 1469 1471 1473 1475 1477 1478 1478 1479 1480 1481 1483 1483 1481 1480 1479 1478 1478 1476 1475 1475 1472 1469 1469 1468 1468 1465 1463 1458 1455 1446 1441 1442 1446 1451 1450 1446 1438 1418 1412 1406 1406 1408 1398 1388
1458 1460 1462 1463 1465 1467 1470 1472 1474 1475 1476 1476 1477 1479 1479 1478 1473 1473 1474 1474 1473 1472 1471 1467 1464 1465 1466 1466 1464 1465 1457 1452 1442 1435 1438 1440 1444 1446 1449 1440 1428 1401 1400 1402 1404 1392 1386
1453 1455 1456 1458 1460 1461 1464 1465 1468 1470 1472 1473 1474 1475 1476 1473 1469 1471 1471 1471 1471 1470 1468 1466 1463 1462 1462 1464 1465 1462 1455 1445 1440 1434 1438 1441 1441 1439 1433 1430 1407 1400 1399 1400 1405 1389 1381
1448 1450 1451 1453 1455 1457 1458 1460 1461 1464 1466 1468 1469 1471 1472 1467 1461 1462 1464 1464 1465 1466 1466 1464 1465 1459 1461 1462 1461 1456 1455 1442 1440 1431 1428 1428 1432 1432 1428 1422 1411 1390 1394 1395 1385 1381 1382
1443 1445 1446 1448 1450 1452 1454 1455 1457 1458 1460 1463 1464 1467 1468 1465 1455 1453 1453 1453 1456 1456 1460 1459 1456 1455 1454 1455 1454 1450 1444 1442 1436 1435 1429 1429 1420 1414 1413 1397 1390 1389 1389 1387 1385 1379 1378